Payson, AZ

3:50 AM MST on May 29, 2017 (GMT -0700)
Payson

Weather History for KPAN - September, 2012

Change the Weather History Date:

Tuesday, September 11, 2012

  Actual Average Record
Temperature  
Mean Temperature 62 °F -  
Max Temperature 64 °F 85 °F 91 °F (2015)
Min Temperature 59 °F 51 °F 53 °F (2011)
Degree Days  
Heating Degree Days 4    
Growing Degree Days 12 (Base 50)    
Moisture  
Dew Point 60 °F    
Average Humidity 92    
Maximum Humidity 100    
Minimum Humidity 73    
Precipitation  
Precipitation 0.01 in - - ()
Sea Level Pressure  
Sea Level Pressure 30.17 in    
Wind  
Wind Speed 3 mph (SSE)    
Max Wind Speed 13 mph    
Max Gust Speed 18 mph    
Visibility 10 miles    
Events      
Averages and records for this station are not official NWS values.
T = Trace of Precipitation, MM = Missing Value Source: NWS Daily Summary

Daily Weather History Graph

Daily Weather History Graph

Search for Another Location

Airport or City:

Trip Planner

Search our weather history database for the weather conditions in past years. The results will help you decide how hot, cold, wet, or windy it might be!

Date:

Astronomy

Sep. 11, 2012 Rise Set
Actual Time 6:06 AM MST 6:36 PM MST
Civil Twilight 5:40 AM MST 7:02 PM MST
Nautical Twilight 5:11 AM MST 7:31 PM MST
Astronomical Twilight 4:40 AM MST 8:01 PM MST
Moon 1:36 AM MST (9/11) 3:41 PM MST (9/11)
Length of Visible Light 13h 21m
Length of Day
12h 30m
Waning Crescent, 20% of the Moon is Illuminated
Sep 11
Waning Crescent
Sep 15
New
Sep 22
First Quarter
Sep 29
Full
Oct 8
Last Quarter

Hourly Weather History & Observations

Time (MST) Temp. Dew Point Humidity Pressure Visibility Wind Dir Wind Speed Gust Speed Precip Events Conditions
12:15 AM 64.4 °F 57.2 °F 77% 30.19 in 10.0 mi South 8.1 mph - N/A   Mostly Cloudy
12:35 AM 64.4 °F 57.2 °F 77% 30.19 in 10.0 mi South 12.7 mph 18.4 mph N/A   Overcast
12:55 AM 64.4 °F 59.0 °F 83% 30.19 in 10.0 mi South 10.4 mph 18.4 mph N/A   Overcast
1:15 AM 60.8 °F 60.8 °F 100% 30.18 in 10.0 mi SSW 6.9 mph - N/A   Overcast
1:35 AM 60.8 °F - N/A% 30.18 in 6.0 mi Calm Calm - N/A   Overcast
1:55 AM 59.0 °F - N/A% 30.18 in 10.0 mi Calm Calm - N/A   Mostly Cloudy
2:15 AM 59.0 °F - N/A% 30.17 in 9.0 mi NNE 4.6 mph - N/A   Mostly Cloudy
2:35 AM 59.0 °F - N/A% 30.16 in 10.0 mi NE 3.5 mph - N/A   Scattered Clouds
2:55 AM 59.0 °F - N/A% 30.15 in 10.0 mi North 4.6 mph - N/A   Partly Cloudy
3:15 AM 59.0 °F - N/A% 30.15 in 10.0 mi Calm Calm - N/A   Partly Cloudy
3:35 AM 60.8 °F - N/A% 30.14 in 10.0 mi NE 3.5 mph - N/A   Mostly Cloudy
3:55 AM 60.8 °F 60.8 °F 100% 30.15 in 10.0 mi SSE 3.5 mph - N/A   Overcast
4:15 AM 60.8 °F 60.8 °F 100% 30.15 in 10.0 mi Calm Calm - N/A   Overcast
4:35 AM 60.8 °F 60.8 °F 100% 30.14 in 10.0 mi Calm Calm - N/A   Overcast
4:55 AM 60.8 °F 60.8 °F 100% 30.15 in 10.0 mi Calm Calm - N/A   Overcast
5:15 AM 60.8 °F 60.8 °F 100% 30.15 in 10.0 mi Calm Calm - N/A   Overcast
5:35 AM 60.8 °F 60.8 °F 100% 30.15 in 10.0 mi Calm Calm - N/A   Overcast
5:55 AM 60.8 °F 60.8 °F 100% 30.16 in 10.0 mi Calm Calm - N/A   Overcast
6:15 AM 59.0 °F - N/A% 30.15 in 10.0 mi ENE 3.5 mph - N/A   Mostly Cloudy
6:35 AM 59.0 °F - N/A% 30.15 in 8.0 mi ENE 4.6 mph - N/A   Mostly Cloudy
6:55 AM 59.0 °F - N/A% 30.16 in 10.0 mi Calm Calm - N/A   Mostly Cloudy
7:15 AM 60.8 °F 60.8 °F 100% 30.17 in 10.0 mi Calm Calm - N/A   Mostly Cloudy
7:35 AM 60.8 °F 60.8 °F 100% 30.17 in 10.0 mi Calm Calm - N/A   Mostly Cloudy
7:55 AM 60.8 °F 60.8 °F 100% 30.18 in 10.0 mi Calm Calm - N/A   Overcast
8:15 AM 60.8 °F 60.8 °F 100% 30.18 in 10.0 mi Calm Calm - N/A   Mostly Cloudy
8:35 AM 62.6 °F 62.6 °F 100% 30.19 in 10.0 mi Calm Calm - N/A   Mostly Cloudy
9:15 AM 60.8 °F 60.8 °F 100% 30.20 in 7.0 mi SE 4.6 mph - N/A   Overcast
9:35 AM 62.6 °F 62.6 °F 100% 30.21 in 8.0 mi SSE 5.8 mph - N/A   Overcast
9:55 AM 60.8 °F 60.8 °F 100% 30.21 in 8.0 mi Calm Calm - 0.01 in   Overcast
10:15 AM 60.8 °F 60.8 °F 100% 30.20 in 10.0 mi South 3.5 mph - N/A   Overcast
10:35 AM 62.6 °F 62.6 °F 100% 30.21 in 10.0 mi Calm Calm - N/A   Mostly Cloudy
10:55 AM 62.6 °F 60.8 °F 94% 30.21 in 10.0 mi Calm Calm - N/A   Overcast
11:15 AM 62.6 °F 57.2 °F 82% 30.21 in 10.0 mi SSW 3.5 mph - N/A   Overcast
11:55 AM 62.6 °F 57.2 °F 82% 30.21 in 10.0 mi SSE 3.5 mph - N/A   Overcast
12:15 PM 62.6 °F 59.0 °F 88% 30.20 in 9.0 mi Calm Calm - N/A   Overcast
12:35 PM 64.4 °F 59.0 °F 83% 30.20 in 7.0 mi Calm Calm - N/A   Mostly Cloudy
12:55 PM 62.6 °F 60.8 °F 94% 30.19 in 8.0 mi Calm Calm - N/A   Overcast
1:15 PM 62.6 °F 57.2 °F 82% 30.19 in 10.0 mi Calm Calm - N/A   Mostly Cloudy
1:35 PM 62.6 °F 59.0 °F 88% 30.18 in 10.0 mi Calm Calm - N/A   Overcast
1:55 PM 62.6 °F 59.0 °F 88% 30.18 in 7.0 mi WSW 3.5 mph - N/A   Overcast
2:15 PM 62.6 °F 60.8 °F 94% 30.18 in 3.0 mi Calm Calm - N/A   Overcast
2:35 PM 62.6 °F 60.8 °F 94% 30.17 in 10.0 mi Calm Calm - N/A   Mostly Cloudy
3:15 PM 64.4 °F 59.0 °F 83% 30.16 in 9.0 mi Calm Calm - N/A   Mostly Cloudy
3:35 PM 64.4 °F 57.2 °F 77% 30.16 in 10.0 mi Calm Calm - N/A   Mostly Cloudy
3:55 PM 64.4 °F 55.4 °F 73% 30.15 in 10.0 mi Calm Calm - N/A   Mostly Cloudy
4:15 PM 64.4 °F 55.4 °F 73% 30.15 in 10.0 mi Calm Calm - N/A   Mostly Cloudy
4:35 PM 64.4 °F 55.4 °F 73% 30.14 in 10.0 mi South 3.5 mph - N/A   Mostly Cloudy
4:55 PM 64.4 °F 57.2 °F 77% 30.14 in 10.0 mi SSW 3.5 mph - N/A   Overcast
5:15 PM 64.4 °F 57.2 °F 77% 30.14 in 10.0 mi Calm Calm - N/A   Overcast
5:35 PM 64.4 °F 60.8 °F 88% 30.14 in 10.0 mi Calm Calm - N/A   Overcast
5:55 PM 64.4 °F 60.8 °F 88% 30.14 in 10.0 mi South 4.6 mph - N/A   Overcast
6:15 PM 62.6 °F 57.2 °F 82% 30.14 in 10.0 mi South 3.5 mph - N/A   Overcast
6:35 PM 62.6 °F 57.2 °F 82% 30.14 in 10.0 mi SE 4.6 mph - N/A   Mostly Cloudy
6:55 PM 62.6 °F 59.0 °F 88% 30.15 in 10.0 mi Calm Calm - N/A   Mostly Cloudy
7:35 PM 62.6 °F 60.8 °F 94% 30.16 in 10.0 mi SE 3.5 mph - N/A   Overcast
7:55 PM 62.6 °F 60.8 °F 94% 30.16 in 10.0 mi Calm Calm - N/A   Overcast
8:15 PM 62.6 °F 60.8 °F 94% 30.17 in 10.0 mi Calm Calm - N/A   Mostly Cloudy
8:35 PM 60.8 °F 60.8 °F 100% 30.17 in 10.0 mi Calm Calm - N/A   Partly Cloudy
8:55 PM 60.8 °F 60.8 °F 100% 30.18 in 10.0 mi Calm Calm - N/A   Mostly Cloudy
9:35 PM 60.8 °F 60.8 °F 100% 30.18 in 10.0 mi Calm Calm - N/A   Overcast
9:55 PM 60.8 °F 60.8 °F 100% 30.18 in 10.0 mi Calm Calm - N/A   Overcast
10:15 PM 60.8 °F 60.8 °F 100% 30.19 in 10.0 mi Calm Calm - N/A   Mostly Cloudy
10:35 PM 60.8 °F 60.8 °F 100% 30.19 in 10.0 mi Calm Calm - N/A   Mostly Cloudy
10:55 PM 60.8 °F 60.8 °F 100% 30.19 in 10.0 mi Calm Calm - N/A   Overcast
11:15 PM 60.8 °F 60.8 °F 100% 30.18 in 10.0 mi Calm Calm - N/A   Overcast
11:35 PM 60.8 °F 60.8 °F 100% 30.18 in 10.0 mi Calm Calm - N/A   Mostly Cloudy
11:55 PM 59.0 °F 59.0 °F 100% 30.17 in 10.0 mi Calm Calm - N/A   Mostly Cloudy